Weather observations for the past three days for
Medicine Lodge, Medicine Lodge
Metric (Imperial)
Date Time (cdt) Wind (kph) Vis. (km) Weather Sky Cond. Temperature (ºC) Relative Humidity Wind Chill (°C) Heat Index (°C) Pressure Precipitation (cm)
Air Dwpt 6 hour altimeter (cm) sea level (mb) 1 hr 3 hr 6 hr
Max. Min.
21 09:56 W 30 G 43 0.00 NULL NULL 28.3 8.3 28% 27 75.23 1000.9
21 08:56 SW 24 G 39 0.00 NULL NULL 26.7 15.6 51% 27 75.16 999.9
21 07:56 S 20 G 33 0.00 NULL NULL 24.4 20 77% 25 75.11 999.5
21 06:56 S 22 G 39 0.00 NULL NULL 23.3 20 24.4 22.2 82% 75.11 999.2
21 05:56 S 17 0.00 NULL NULL 22.8 19.4 81% 75.06 998.9
21 04:56 S 19 0.00 NULL NULL 22.8 19.4 81% 75.06 998.9
21 03:56 S 22 G 37 0.00 NULL NULL 22.8 19.4 81% 74.98 997.8
21 02:56 SE 19 G 35 0.00 NULL NULL 23.3 19.4 79% 75.06 998.8
21 01:56 SE 17 G 35 0.00 NULL NULL 23.9 19.4 76% 24 75.16 1000.2
21 00:56 SE 17 G 35 0.00 NULL NULL 24.4 19.4 31.1 24.4 74% 25 75.23 1001.1
20 23:56 SE 17 G 31 0.00 NULL NULL 25 19.4 71% 26 75.29 1002.0
20 22:56 SE 17 G 31 0.00 NULL NULL 25.6 19.4 69% 27 75.31 1002.5
20 21:56 SE 17 G 30 0.00 NULL NULL 27.2 19.4 62% 29 75.31 1002.4
20 20:56 SE 17 0.00 NULL NULL 28.3 20 61% 30 75.31 1002.2
20 19:56 SE 15 0.00 NULL NULL 29.4 20.6 59% 32 75.31 1002.3
20 18:56 E 13 G 30 0.00 NULL NULL 31.1 20.6 32.8 26.7 54% 34 75.31 1002.5
20 17:56 SE 19 0.00 NULL NULL 31.1 20 52% 33 75.36 1003.0
20 16:56 S 15 G 30 0.00 NULL NULL 32.8 19.4 45% 35 75.36 1003.1
20 15:56 SE 9 G 26 0.00 NULL NULL 31.1 18.9 48% 32 75.44 1003.9
20 14:56 S 7 0.00 NULL NULL 30.6 19.4 51% 32 75.49 1004.6
20 13:56 Vrbl 11 G 26 0.00 NULL NULL 28.9 19.4 57% 30 75.51 1005.3
20 12:56 S 7 0.00 NULL NULL 26.1 18.9 26.1 20 65% 27 75.62 1006.5
20 11:56 SE 11 0.00 NULL NULL 25 18.3 66% 26 75.64 1006.9
20 10:56 SE 13 G 31 0.00 NULL NULL 23.3 17.2 69% 75.62 1006.8
20 09:56 SE 17 G 37 0.00 NULL NULL 22.2 16.1 68% 75.69 1007.7
20 08:56 SE 20 G 37 0.00 NULL NULL 22.2 15 64% 75.67 1007.5
20 07:56 SE 9 0.00 NULL NULL 20 15 73% 75.67 1007.7
20 06:56 SE 15 G 28 0.00 NULL NULL 20 14.4 20.6 18.9 70% 75.67 1007.0
20 05:56 SE 11 0.00 NULL NULL 19.4 14.4 73% 75.62 1006.3
20 04:56 SE 15 0.00 NULL NULL 19.4 13.9 71% 75.59 1005.9
20 03:56 SE 17 G 28 0.00 NULL NULL 19.4 15 76% 75.57 1005.8
20 02:56 E 6 0.00 NULL NULL 18.9 15.6 81% 75.57 1005.6
20 01:56 E 11 0.00 NULL NULL 20 16.1 78% 75.59 1005.9
20 00:56 SE 11 0.00 NULL NULL 20.6 16.1 30.6 20 76% 75.64 1006.7 0.03
19 23:56 Vrbl 7 0.00 NULL NULL 20 15.6 76% 75.69 1007.6
19 22:56 E 15 0.00 NULL NULL 20.6 15 70% 75.69 1007.5
19 21:56 E 13 0.00 NULL NULL 21.1 15.6 71% 75.57 1005.7 0.03
19 19:56 N 13 0.00 NULL NULL 21.1 14.4 66% 75.49 1005.1 0.03
19 18:56 S 30 G 52 0.00 NULL NULL 30.6 20 33.3 30.6 53% 33 75.29 1002.1
19 17:56 S 39 G 67 0.00 Breezy NULL 32.8 20.6 49% 36 75.26 1001.4
19 16:56 S 39 G 63 0.00 Breezy NULL 32.8 20.6 49% 36 75.34 1002.5
19 15:56 S 44 G 67 0.00 Windy NULL 32.2 20 48% 34 75.46 1004.0
19 14:56 S 39 G 61 0.00 Breezy NULL 32.8 19.4 45% 35 75.57 1005.4
19 13:56 S 44 G 70 0.00 Windy NULL 32.2 19.4 47% 34 75.59 1005.9
19 12:56 S 37 G 61 0.00 Breezy NULL 30.6 19.4 30.6 20 51% 32 75.69 1007.3
19 11:56 S 31 G 52 0.00 NULL NULL 29.4 18.9 53% 31 75.77 1008.4
19 10:56 SE 26 G 50 0.00 NULL NULL 28.3 18.9 57% 30 75.87 1009.5
19 09:56 SE 19 G 37 0.00 NULL NULL 26.7 18.3 60% 28 75.97 1010.9
19 08:56 SE 13 0.00 NULL NULL 24.4 17.2 64% 25 76.07 1012.4
19 07:56 E 13 0.00 NULL NULL 23.3 17.2 69% 76.05 1012.0
19 06:56 E 11 0.00 NULL NULL 20 16.1 23.9 18.9 78% 76.12 1012.9
19 05:56 N 7 0.00 NULL NULL 20.6 16.1 76% 76.15 1013.4
19 04:56 S 7 0.00 NULL NULL 21.1 16.1 73% 75.97 1011.1
19 03:56 SE 11 0.00 NULL NULL 22.8 16.7 69% 75.95 1010.5
19 02:56 SE 7 0.00 NULL NULL 22.8 16.7 69% 75.97 1011.0
19 01:56 SE 7 0.00 NULL NULL 22.8 16.7 69% 76 1011.2
19 00:56 SE 7 0.00 NULL NULL 23.9 16.7 32.8 23.3 64% 25 76 1011.3
18 22:56 E 7 0.00 NULL NULL 24.4 17.2 64% 25 75.97 1011.0
18 21:56 SE 9 0.00 NULL NULL 26.1 17.2 58% 27 75.92 1010.5
18 19:56 SE 9 0.00 NULL NULL 30.6 16.7 43% 31 75.84 1009.3
18 18:56 SE 9 0.00 NULL NULL 32.8 15 33.9 31.1 34% 32 75.79 1008.7
18 17:56 S 13 0.00 NULL NULL 33.3 14.4 32% 33 75.79 1008.7
18 16:56 SE 13 0.00 NULL NULL 33.3 14.4 32% 33 75.77 1008.6
18 15:56 S 13 0.00 NULL NULL 33.3 15 33% 33 75.79 1008.7
18 14:56 SE 11 0.00 NULL NULL 32.8 16.1 37% 33 75.79 1008.7
18 13:56 E 9 0.00 NULL NULL 31.7 16.1 39% 32 75.79 1008.9
18 12:56 Calm 0.00 NULL NULL 31.7 16.1 32.2 17.2 39% 32 75.82 1009.0
18 11:56 Vrbl 7 0.00 NULL NULL 29.4 15.6 43% 29 75.82 1009.0
18 10:56 S 19 G 28 0.00 NULL NULL 28.3 16.1 48% 29 75.74 1008.0
Date Time (cdt) Wind (kph) Vis. (km) Weather Sky Cond. Air Dwpt Max. Min. Relative Humidity Wind Chill (°C) Heat Index (°C) altimeter (cm) sea level (mb) 1 hr 3 hr 6 hr
6 hour
Temperature (ºC) Pressure Precipitation (cm)